This is the latest recevied weather packets stored in our database for station/object KD5BIG-13. If no packets are shown the sender has not sent any weather packets the latest 1 day(s).
| Time | Temp. | Humidity | Pressure | Rain* | Wind** | Luminosity | Snow |
|---|---|---|---|---|---|---|---|
| 1777993863 | 23.89° C | 73% | 1015.6 hPa | 0 mm | 0 m/s | 687 W/m² | - |
| 1777993559 | 23.33° C | 73% | 1015.6 hPa | 0 mm | 4.02 m/s, 210° | 678 W/m² | - |
| 1777993255 | 22.78° C | 77% | 1015.7 hPa | 0 mm | 0.89 m/s, 141° | 653 W/m² | - |
| 1777992952 | 22.22° C | 77% | 1015.7 hPa | 0 mm | 0.89 m/s, 154° | 616 W/m² | - |
| 1777992650 | 21.67° C | 80% | 1015.6 hPa | 0 mm | 0.89 m/s, 192° | 317 W/m² | - |
| 1777992348 | 21.67° C | 79% | 1015.7 hPa | 0 mm | 0.45 m/s, 203° | 235 W/m² | - |
| 1777992045 | 21.11° C | 81% | 1015.6 hPa | 0 mm | 0 m/s | 248 W/m² | - |
| 1777991743 | 20.56° C | 80% | 1015.8 hPa | 0 mm | 0.45 m/s, 221° | 200 W/m² | - |
| 1777991439 | 20.56° C | 82% | 1015.8 hPa | 0 mm | 0.89 m/s, 174° | 208 W/m² | - |
| 1777991137 | 20.56° C | 81% | 1015.8 hPa | 0 mm | 0.89 m/s, 171° | 155 W/m² | - |
| 1777990834 | 20.56° C | 80% | 1015.7 hPa | 0 mm | 0.45 m/s, 180° | 157 W/m² | - |
| 1777990531 | 20° C | 82% | 1015.7 hPa | 0 mm | 0.89 m/s, 276° | 158 W/m² | - |
| 1777990228 | 20° C | 82% | 1015.7 hPa | 0 mm | 0 m/s | 113 W/m² | - |
| 1777989925 | 20° C | 81% | 1015.8 hPa | 0 mm | 0.89 m/s, 155° | 109 W/m² | - |
| 1777989622 | 20° C | 82% | 1015.7 hPa | 0 mm | 0.89 m/s, 182° | 105 W/m² | - |
| 1777989318 | 20° C | 82% | 1015.7 hPa | 0 mm | 0.45 m/s, 139° | 104 W/m² | - |
| 1777989014 | 20° C | 82% | 1015.7 hPa | 0 mm | 0.45 m/s, 165° | 120 W/m² | - |
| 1777988710 | 20° C | 84% | 1016 hPa | 0 mm | 0.89 m/s, 174° | 116 W/m² | - |
| 1777988408 | 19.44° C | 82% | 1015.9 hPa | 0 mm | 0.45 m/s, 47° | 174 W/m² | - |
| 1777988105 | 19.44° C | 84% | 1016.1 hPa | 0 mm | 0.89 m/s, 332° | 168 W/m² | - |
| 1777987800 | 18.89° C | 84% | 1015.9 hPa | 0 mm | 0 m/s | 169 W/m² | - |
| 1777987497 | 18.89° C | 83% | 1016 hPa | 0 mm | 0.89 m/s, 354° | 154 W/m² | - |
| 1777987195 | 18.33° C | 84% | 1016.1 hPa | 0 mm | 0.45 m/s, 148° | 145 W/m² | - |
| 1777986891 | 18.33° C | 85% | 1016.1 hPa | 0 mm | 0 m/s | 161 W/m² | - |
| 1777986589 | 17.78° C | 86% | 1016.1 hPa | 0 mm | 0 m/s | 138 W/m² | - |
* Rain latest hour (hover to see other rain measurements)
** Current wind speed in m/s (hover to see current wind gust speed)